CW3577 Weather Reports


Display with metric or nautical units.
time (UTC)temp
F
wind
direction
speed
MPH
gust
MPH
rain 1hr
in
rain 24hr
in
rain mn
in
humidity
%
barometer
mb
20260906220036 70 28 2.0 4.0 0.00 0.23 0.20 56 1014.7
20260906214603 70 36 0.0 3.0 0.00 0.23 0.20 56 1014.8
20260906213032 71 92 2.0 8.0 0.00 0.23 0.20 54 1014.7
20260906211557 73 313 4.0 13.0 0.00 0.23 0.20 49 1014.5
20260906210027 73 355 4.0 6.0 0.00 0.23 0.20 54 1014.4
20260906204557 71 45 2.0 8.0 0.00 0.23 0.20 59 1014.5
20260906203011 74 67 5.0 10.0 0.00 0.23 0.20 55 1014.3
20260906201600 72 42 2.0 8.0 0.00 0.23 0.20 58 1014.3
20260906200005 73 339 2.0 9.0 0.00 0.23 0.20 55 1014.2
20260906194551 73 298 2.0 11.0 0.00 0.23 0.20 54 1014.2
20260906193106 73 312 2.0 10.0 0.00 0.23 0.20 55 1014.3
20260906191545 69 355 2.0 8.0 0.00 0.23 0.20 61 1014.4
20260906190139 70 345 3.0 10.0 0.00 0.23 0.20 61 1014.6
20260906184540 69 309 3.0 10.0 0.00 0.23 0.20 63 1014.6
20260906183110 71 308 3.0 10.0 0.00 0.23 0.20 63 1014.8
20260906181543 70 355 3.0 6.0 0.00 0.23 0.20 67 1014.9
20260906180108 70 184 1.0 6.0 0.00 0.23 0.20 69 1014.9
20260906174533 70 296 1.0 4.0 0.00 0.23 0.20 71 1015.2
20260906173054 69 307 3.0 8.0 0.00 0.23 0.20 71 1015.3
20260906171602 68 297 1.0 4.0 0.02 0.23 0.20 75 1015.4
20260906170033 66 24 2.0 5.0 0.06 0.23 0.20 80 1015.6
20260906164546 64 309 0.0 3.0 0.07 0.23 0.20 87 1015.8
20260906163059 63 279 1.0 5.0 0.08 0.23 0.20 85 1016.0
20260906161540 66 355 6.0 12.0 0.05 0.20 0.17 81 1016.2
20260906160056 64 14 0.0 2.0 0.02 0.17 0.14 83 1016.0
20260906154524 66 338 2.0 8.0 0.01 0.15 0.12 78 1016.1
20260906153059 67 321 1.0 8.0 0.01 0.15 0.12 75 1016.2
20260906151517 66 5 1.0 3.0 0.01 0.15 0.12 88 1016.3
20260906150052 63 339 2.0 5.0 0.01 0.15 0.12 82 1016.4
20260906144517 65 36 2.0 4.0 0.00 0.14 0.11 78 1016.5
20260906143046 64 62 1.0 6.0 0.00 0.14 0.11 81 1016.4
20260906141506 63 345 1.0 8.0 0.00 0.14 0.11 81 1016.5
20260906140052 62 346 2.0 4.0 0.00 0.14 0.11 85 1016.5
20260906134502 62 16 2.0 5.0 0.00 0.14 0.11 83 1016.4
20260906133105 62 59 1.0 3.0 0.00 0.14 0.11 83 1016.2
20260906131602 62 329 4.0 7.0 0.00 0.14 0.11 88 1016.3
20260906130046 61 336 1.0 4.0 0.00 0.14 0.11 90 1016.4
20260906124603 60 338 2.0 4.0 0.00 0.14 0.11 90 1016.5
20260906123039 61 339 1.0 5.0 0.00 0.14 0.11 92 1016.5
20260906121558 60 329 2.0 5.0 0.00 0.14 0.11 93 1016.2
20260906120027 59 323 1.0 5.0 0.00 0.14 0.11 94 1016.1
20260906114602 59 317 1.0 4.0 0.00 0.14 0.11 94 1016.0
20260906113019 59 327 1.0 3.0 0.00 0.14 0.11 94 1015.9
20260906111556 58 328 1.0 4.0 0.00 0.14 0.11 94 1015.6
20260906110023 58 42 0.0 1.0 0.02 0.14 0.11 94 1015.5
20260906104546 58 42 0.0 1.0 0.02 0.14 0.11 94 1015.3
20260906103058 58 42 0.0 2.0 0.02 0.14 0.11 94 1015.2
20260906101506 58 42 0.0 1.0 0.03 0.14 0.11 93 1014.9
20260906100047 58 42 0.0 3.0 0.01 0.12 0.09 93 1014.9
20260906094605 58 42 1.0 2.0 0.01 0.12 0.09 94 1014.8
20260906093045 58 42 0.0 2.0 0.02 0.12 0.09 93 1014.7
20260906091559 58 42 0.0 2.0 0.02 0.11 0.08 93 1014.5
20260906090043 59 42 0.0 2.0 0.05 0.11 0.08 93 1014.4
20260906084625 59 53 1.0 4.0 0.05 0.11 0.08 93 1014.5
20260906083040 60 38 1.0 3.0 0.04 0.10 0.07 93 1014.4
20260906081601 60 59 0.0 3.0 0.03 0.09 0.06 94 1014.3
20260906080017 60 360 1.0 3.0 0.00 0.06 0.03 94 1014.2
20260906074559 61 319 0.0 2.0 0.01 0.06 0.03 94 1013.8
20260906073016 61 319 0.0 2.0 0.02 0.06 0.03 94 1013.9
20260906071558 61 319 0.0 2.0 0.02 0.06 0.03 94 1013.7
20260906070017 61 318 1.0 2.0 0.02 0.06 0.03 94 1013.7
20260906064550 61 319 2.0 4.0 0.01 0.05 0.02 93 1013.7
20260906063008 61 321 0.0 2.0 0.00 0.04 0.01 93 1013.7
20260906061604 61 323 0.0 3.0 0.00 0.04 0.01 93 1013.7
20260906060006 61 315 1.0 3.0 0.01 0.04 0.01 93 1013.9
20260906054548 61 324 1.0 3.0 0.01 0.04 0.01 93 1013.7
20260906053110 61 312 0.0 0.0 0.01 0.04 0.01 93 1013.7
20260906051541 61 312 0.0 1.0 0.01 0.04 0.01 93 1013.9
20260906050055 61 312 0.0 3.0 0.00 0.03 0.00 92 1013.9
20260906044503 61 312 0.0 4.0 0.00 0.03 0.00 92 1013.9
20260906043052 62 302 0.0 5.0 0.00 0.03 0.00 92 1013.9
20260906041604 62 342 1.0 3.0 0.01 0.03 0.00 92 1013.9
20260906040008 62 28 1.0 3.0 0.01 0.03 0.03 92 1013.9
20260906034520 62 78 0.0 1.0 0.01 0.03 0.03 92 1013.7
20260906033105 62 78 0.0 1.0 0.01 0.03 0.03 92 1013.6
20260906031512 62 78 0.0 1.0 0.00 0.02 0.02 92 1013.5
20260906030058 62 78 0.0 2.0 0.00 0.02 0.02 92 1013.6
20260906024506 62 78 0.0 0.0 0.01 0.02 0.02 91 1013.6
20260906023103 63 78 0.0 1.0 0.01 0.02 0.02 91 1013.5
20260906021502 63 78 0.0 1.0 0.01 0.02 0.02 91 1013.5
20260906020050 63 78 0.0 0.0 0.01 0.02 0.02 90 1013.3
20260906014524 63 78 0.0 1.0 0.00 0.01 0.01 90 1013.5
20260906013042 63 78 0.0 2.0 0.00 0.01 0.01 89 1013.6
20260906011501 63 78 0.0 2.0 0.01 0.01 0.01 89 1013.7
20260906010057 64 78 0.0 2.0 0.01 0.01 0.01 88 1013.6
20260906004557 64 78 0.0 1.0 0.01 0.01 0.01 87 1013.3
20260906003016 64 78 0.0 0.0 0.01 0.01 0.01 86 1013.2
20260906001615 64 78 0.0 2.0 0.00 0.00 0.00 84 1013.2
20260906000013 65 78 0.0 2.0 0.00 0.00 0.00 82 1013.1
20260905234558 65 78 0.0 1.0 0.00 0.00 0.00 81 1013.1
20260905233007 65 78 0.0 2.0 0.00 0.00 0.00 80 1012.9
20260905231552 65 78 1.0 3.0 0.00 0.00 0.00 80 1012.7
20260905230122 66 78 0.0 3.0 0.00 0.00 0.00 79 1012.6
20260905224542 66 78 0.0 4.0 0.00 0.00 0.00 78 1012.5
20260905223056 66 74 1.0 4.0 0.00 0.00 0.00 78 1012.3
20260905221515 66 122 0.0 2.0 0.00 0.00 0.00 79 1012.3